SCP
0 0 0 0 0 0 0 0 1 2 3 2 3 3 4 5 5 5 7 7 6 5 6 6 5 5 5 5 5 5 5 4 4 3 3 3 2 2 2 2 1 2 2 2
0 0 0 0 0 0 0 1 1 2 3 3 3 4 4 5 5 5 6 7 7 7 7 7 6 5 5 5 5 5 5 4 4 3 3 3 2 2 2 2 2 2 2 2
0 0 0 0 0 1 1 2 2 2 3 3 4 4 4 4 5 5 6 8 8 8 7 6 6 6 5 6 6 6 6 5 4 3 3 2 2 3 3 2 2 2 3 3
1 0 0 1 1 2 3 3 3 3 3 3 4 4 5 5 6 7 8 9 8 7 5 5 5 6 6 7 7 7 7 6 4 3 3 2 3 3 3 3 3 3 3 3
1 1 1 1 2 2 3 3 4 3 3 3 4 5 6 6 7 8 9 8 6 5 5 5 6 8 9 10 9 8 7 5 4 3 3 3 3 3 3 3 3 3 3 3
1 1 1 1 2 1 2 3 3 3 3 3 4 5 6 6 7 8 8 7 7 7 8 9 11 13 13 12 9 7 6 5 4 4 3 3 3 4 4 3 3 3 3 3
1 1 1 1 2 2 2 3 2 2 3 4 5 6 6 6 6 7 7 7 8 10 12 14 15 16 14 11 9 7 6 5 5 4 4 4 4 4 4 3 3 3 3 3
1 1 2 2 2 2 3 4 3 3 4 5 5 6 6 6 6 7 8 8 10 12 14 15 16 15 13 10 8 7 6 6 5 5 4 4 5 5 4 4 3 3 3 3
1 1 2 2 2 3 4 4 4 4 4 4 5 6 6 7 8 10 11 12 13 14 14 14 13 12 10 9 9 9 8 7 7 6 5 5 5 5 4 4 3 3 4 4
2 2 2 3 3 2 3 3 3 4 4 4 5 7 7 8 10 13 14 15 14 13 12 11 10 9 8 9 10 9 9 9 9 7 6 6 6 5 4 4 4 5 5 5
2 2 3 3 3 2 2 2 3 3 4 5 6 7 8 9 10 11 12 12 11 9 7 6 6 7 8 9 9 9 9 10 10 8 7 6 5 5 4 3 4 5 5 5
2 2 2 3 3 2 2 2 3 3 4 5 6 6 7 8 8 8 9 9 9 7 5 4 5 7 9 9 9 8 9 9 9 7 5 5 4 4 4 3 3 3 3 3
2 2 2 2 3 3 3 3 3 4 5 5 5 6 7 8 8 8 9 11 10 8 5 4 4 6 8 9 9 8 8 7 5 4 3 3 4 5 4 3 3 2 1 1
2 2 2 2 3 3 3 3 3 4 5 5 5 7 10 10 10 10 10 11 10 7 5 4 5 6 7 7 7 7 6 4 3 3 3 3 4 5 4 4 3 3 2 1
2 2 2 2 2 3 3 3 3 4 5 5 7 10 12 12 12 10 10 10 8 5 4 5 6 6 6 6 6 6 5 3 2 2 2 3 3 4 4 3 3 2 2 1
2 2 2 2 2 2 2 3 3 4 5 7 9 11 12 11 10 9 8 7 5 4 4 4 5 5 5 5 5 5 4 3 2 2 2 2 3 3 3 2 2 2 1 1
2 2 2 2 2 2 2 3 4 5 7 8 10 10 8 7 7 6 6 5 4 4 4 4 4 4 5 5 5 5 4 3 2 2 2 2 2 2 2 2 2 2 1 1
2 2 2 2 2 3 3 3 5 7 8 9 9 7 6 4 4 4 3 3 4 5 5 4 3 3 4 4 5 5 5 4 4 3 3 2 2 2 2 2 1 2 2 2
2 2 2 2 2 2 2 3 6 8 9 8 7 5 4 3 3 2 2 3 5 6 6 4 3 3 4 4 4 5 6 5 4 4 4 4 3 3 2 1 1 1 1 1
3 3 2 2 2 2 3 4 6 8 8 7 6 4 3 3 2 2 3 3 4 4 4 3 2 2 3 4 4 4 5 5 5 4 5 5 5 3 2 1 1 0 0 1
3 3 2 2 2 2 4 6 7 8 7 6 5 4 3 3 3 3 3 3 3 3 2 2 1 1 2 3 3 3 4 4 4 4 5 6 5 4 2 1 1 1 0 0
3 2 3 3 3 4 5 7 8 7 6 5 4 3 3 3 3 2 2 2 2 2 1 1 1 1 1 3 4 4 3 3 3 3 4 5 5 4 3 2 1 1 1 1
3 3 3 4 5 5 5 6 6 6 5 5 4 3 3 3 2 2 2 2 2 1 1 1 0 0 1 3 4 4 4 3 2 2 4 5 5 4 3 2 2 2 1 1
3 3 3 5 5 5 4 4 4 4 4 4 4 3 2 2 2 2 2 1 1 1 1 0 0 0 1 3 4 4 4 4 4 3 3 4 4 3 3 3 2 2 1 1
2 3 3 4 4 4 3 3 3 3 3 3 3 2 2 2 2 2 2 1 1 0 0 0 1 1 1 2 3 3 3 4 4 4 4 4 3 3 3 3 2 2 1 1
2 2 3 3 3 3 2 2 2 2 2 2 2 2 1 1 1 1 2 1 1 1 1 1 1 1 1 2 3 2 1 2 3 4 4 4 3 3 3 2 2 2 2 2
2 3 3 3 3 2 2 1 1 2 1 1 1 1 1 1 1 2 2 1 1 2 3 3 2 2 2 3 3 2 1 1 2 4 4 4 4 3 2 2 2 2 2 2
Wind_Speed
13 14 13 11 11 10 11 10 10 7 4 4 3 5 6 7 7 8 8 7 7 7 6 6 5 4 3 3 3 3 3 3 3 2 1 1 1 1 1 0 1 1 1 1
14 15 15 14 13 12 12 11 9 6 3 1 4 7 6 6 6 6 7 6 6 6 6 6 5 4 4 3 3 3 2 2 2 2 1 1 1 1 1 1 1 1 1 1
12 13 15 15 11 10 9 7 7 5 2 2 4 5 4 6 6 5 6 6 5 5 5 5 5 4 4 4 3 3 2 2 2 1 1 1 1 0 1 1 1 2 2 1
11 13 15 9 7 8 8 6 5 1 1 0 3 4 4 5 5 4 5 5 5 4 4 5 5 5 4 4 3 3 2 2 2 2 1 1 1 1 1 1 1 2 2 1
9 12 11 9 7 6 7 4 3 3 1 1 3 4 3 4 5 5 4 4 4 4 4 4 5 4 4 3 3 3 2 2 1 1 1 1 1 1 1 2 2 2 2 2
10 12 12 6 5 5 5 3 4 4 4 2 1 2 2 4 5 5 4 4 4 4 4 4 3 4 3 3 2 2 2 2 1 1 1 1 1 1 1 2 2 2 2 2
12 13 8 5 5 4 5 2 5 4 4 4 4 3 3 4 5 5 4 4 4 4 4 3 3 3 3 3 2 1 1 1 1 1 1 1 1 1 1 2 2 2 2 2
10 12 6 6 5 3 4 4 5 5 5 5 5 5 5 5 5 4 4 4 4 4 3 3 3 2 2 2 1 1 1 0 0 1 1 1 1 1 1 2 3 3 3 3
3 2 2 4 4 4 4 4 4 4 4 4 4 4 4 4 4 4 4 3 3 3 3 3 3 2 2 2 2 1 0 0 1 1 1 1 2 2 2 2 3 3 3 2
2 2 2 3 4 4 4 4 3 3 2 2 2 3 4 4 4 4 4 3 3 3 3 3 2 2 2 2 1 1 0 0 1 1 2 2 2 2 2 2 2 3 3 2
2 1 1 2 3 4 4 5 5 4 3 3 3 3 4 4 4 4 3 3 3 3 2 2 2 2 2 2 1 0 0 1 1 1 1 2 2 1 1 1 1 2 2 3
2 1 1 2 4 4 4 4 3 3 4 4 3 3 4 4 4 3 3 3 3 3 2 2 2 2 2 2 1 0 0 0 1 1 1 1 1 1 1 1 1 1 1 3
2 2 2 2 2 3 3 2 3 3 3 3 4 3 4 4 3 3 3 3 3 2 2 2 2 2 2 2 1 0 1 1 2 1 1 2 1 1 1 1 2 2 2 2
4 3 3 2 2 3 2 2 2 2 2 3 3 3 4 4 3 3 2 2 2 2 2 2 3 3 2 2 1 1 1 1 1 2 2 2 2 2 2 2 1 2 2 2
3 2 1 2 2 3 2 2 1 1 2 3 3 3 3 3 3 3 3 2 3 2 2 3 3 2 2 2 1 1 2 1 2 2 2 2 2 2 2 2 2 2 2 1
2 1 1 1 1 1 1 1 0 1 1 2 3 3 3 4 4 4 3 2 2 2 2 2 2 2 3 2 2 1 1 1 2 2 2 2 2 3 2 2 2 2 2 2
2 2 1 1 0 1 1 1 1 1 1 2 3 3 4 4 4 3 3 3 3 2 2 2 2 2 2 2 3 2 2 1 1 2 2 2 2 3 2 2 2 2 2 2
3 2 2 2 2 2 1 1 0 1 2 3 3 3 3 3 3 3 2 2 2 2 2 2 2 2 2 2 2 2 2 2 1 1 2 2 3 3 3 3 3 3 2 2
3 2 2 2 2 2 1 0 0 1 3 3 4 3 3 3 2 2 2 1 1 1 1 2 2 3 3 3 3 2 3 3 2 1 2 2 2 2 2 3 3 3 3 2
4 4 3 3 2 1 1 1 1 3 3 4 4 3 2 2 2 2 2 1 0 1 2 1 1 2 2 2 3 3 3 3 3 2 2 2 2 2 3 3 3 4 3 3
4 4 4 2 2 2 1 1 2 3 3 4 3 3 2 2 2 2 1 1 2 1 0 0 1 1 2 3 3 3 3 3 3 3 2 2 2 3 3 3 3 3 3 3
2 2 2 2 2 2 1 2 3 3 2 3 3 3 3 3 3 2 1 1 1 1 0 1 1 2 3 4 3 3 3 3 3 2 3 3 3 3 3 3 3 3 3 2
1 1 1 1 1 2 1 2 2 2 2 2 2 2 2 2 2 2 1 1 1 1 1 1 2 1 3 4 3 3 3 3 3 3 3 2 3 3 3 3 3 3 3 3
1 2 2 1 2 2 1 2 2 1 1 2 2 2 2 1 1 1 2 3 2 0 0 1 2 1 4 4 3 3 3 3 3 3 3 3 3 2 2 2 3 3 3 4
2 2 2 2 2 1 2 2 2 2 2 1 1 1 1 0 1 1 2 2 3 2 1 2 3 3 3 3 3 3 3 3 3 3 3 3 3 3 3 3 3 3 3 3
2 1 2 1 1 1 1 1 2 2 1 1 1 1 1 1 1 1 1 2 2 1 1 0 1 2 2 2 2 3 3 3 3 3 3 3 4 3 3 3 5 4 3 3
3 2 2 1 1 1 0 0 1 1 1 1 1 1 1 1 1 1 1 1 1 1 0 1 1 2 2 2 2 2 3 3 3 3 3 3 3 3 3 3 3 3 3 3
Wind_Direction
274 274 271 263 255 247 251 261 269 278 260 202 177 145 134 131 137 144 145 146 145 145 138 136 134 134 139 135 124 120 124 133 131 127 126 123 132 153 160 163 278 299 305 299
275 273 275 269 262 260 260 260 262 265 284 67 103 112 128 135 139 147 147 148 144 146 141 143 148 148 144 142 132 126 133 143 132 138 147 155 173 180 183 203 258 267 264 285
274 275 273 261 262 264 270 278 278 280 260 181 130 128 133 133 141 150 146 139 140 149 154 150 151 150 157 154 150 152 153 151 148 148 160 187 240 232 231 232 238 250 253 261
268 271 265 273 286 280 283 294 300 300 265 348 129 129 129 123 126 135 139 141 141 148 150 156 158 160 157 156 151 152 162 170 178 183 188 194 250 270 268 267 262 263 258 242
268 263 261 265 275 279 276 282 324 339 17 52 99 110 128 109 108 116 123 135 142 150 145 141 148 153 150 149 152 159 168 174 173 178 183 211 264 279 281 275 262 254 260 246
257 264 265 271 289 302 275 252 16 34 31 28 101 201 109 88 96 107 122 132 142 145 137 128 139 140 144 150 152 164 177 193 185 189 204 222 248 278 283 279 279 270 259 246
249 260 266 307 320 309 272 358 25 37 41 38 40 46 88 89 100 114 119 117 120 117 110 107 104 127 147 148 162 171 171 189 182 185 216 222 223 242 262 278 275 267 261 250
249 254 256 349 342 3 43 36 36 40 50 64 74 84 86 88 88 98 101 103 102 98 96 94 98 113 125 130 124 104 120 152 172 218 257 250 230 244 254 270 272 260 254 251
249 253 34 9 26 49 40 33 38 39 38 67 86 91 85 96 96 93 89 84 87 88 94 94 86 76 98 92 86 88 103 166 242 246 254 247 241 240 246 254 269 273 265 255
284 171 107 47 25 31 32 35 40 44 31 53 92 100 94 94 91 89 88 87 87 94 91 95 94 83 79 88 96 109 113 259 266 247 247 251 246 237 251 266 277 284 289 286
246 237 308 26 10 21 31 35 29 24 29 37 62 91 98 99 90 82 82 80 87 90 86 84 92 93 89 82 80 92 199 258 272 273 279 262 260 264 260 280 263 273 291 295
281 315 307 46 24 18 33 37 24 27 35 43 48 76 97 95 88 84 78 69 68 73 70 60 72 92 103 101 98 20 281 298 291 280 284 290 288 327 346 307 337 360 342 307
348 343 39 62 34 29 39 42 33 36 49 62 63 74 90 92 90 82 74 73 70 60 52 53 56 74 90 96 102 197 281 302 299 304 303 297 301 296 305 339 18 343 304 297
10 26 42 43 27 21 27 51 61 65 70 82 82 85 91 96 97 93 83 81 75 67 50 46 55 46 40 73 83 299 301 324 321 312 309 310 312 313 315 311 308 317 303 266
327 354 10 30 30 23 25 45 67 95 90 85 92 89 83 91 94 91 85 74 72 67 51 43 38 33 23 30 20 314 320 358 346 334 328 327 325 318 315 323 325 323 325 319
298 352 20 19 53 36 15 39 29 72 101 94 83 87 93 99 100 95 86 79 78 63 52 47 37 26 16 14 0 310 321 24 354 328 335 329 321 322 326 325 324 318 321 344
238 229 243 253 218 302 318 318 270 232 139 114 104 102 108 105 100 95 91 83 77 72 56 45 40 26 5 358 341 327 329 338 333 321 327 330 320 319 321 314 317 323 331 335
237 224 238 244 233 237 252 308 36 74 113 109 110 111 111 108 107 104 99 93 89 74 46 45 36 360 339 351 350 333 311 299 300 311 314 314 313 310 313 316 324 331 333 311
233 219 233 247 262 250 220 185 176 131 125 121 124 123 123 127 126 122 109 98 114 115 70 53 24 329 346 21 5 335 316 309 309 305 307 307 302 316 321 322 324 328 329 321
210 215 223 230 233 261 229 171 126 117 125 134 139 141 143 142 144 141 140 138 70 26 64 60 330 319 345 24 354 316 316 318 313 308 308 303 303 309 312 312 314 322 327 326
217 216 215 205 200 199 194 155 124 127 136 143 146 156 161 153 148 149 188 174 104 73 93 188 271 331 353 343 309 303 310 323 329 317 305 309 312 313 315 315 315 320 326 334
229 227 217 182 181 170 149 149 132 130 141 147 150 156 166 174 177 170 164 130 118 93 294 284 332 32 357 318 302 316 320 319 322 329 330 327 320 312 312 312 309 310 318 323
178 174 148 129 146 122 119 134 131 139 153 151 151 165 188 214 211 185 157 121 130 188 275 337 55 39 322 298 310 320 318 324 331 331 331 333 323 314 308 309 312 308 304 304
124 119 105 88 116 123 125 126 126 139 146 143 159 167 191 203 186 133 110 112 102 169 278 104 149 257 286 293 308 312 309 313 317 323 330 326 319 311 309 307 303 303 301 301
123 125 132 134 154 155 144 148 154 157 167 166 166 173 212 189 139 113 120 133 149 202 225 191 211 251 279 304 315 316 317 318 320 321 319 312 309 311 317 317 317 319 318 319
132 143 116 105 94 149 184 173 175 177 173 172 184 180 139 102 109 135 156 155 156 217 270 264 264 270 295 304 304 302 302 301 299 296 302 305 308 311 315 321 319 315 320 328
136 130 145 161 164 185 171 180 191 183 158 173 183 148 148 156 166 164 177 176 186 206 259 296 296 297 300 300 302 302 301 302 299 300 303 301 302 305 310 320 327 329 327 331